Regional Weather Roundup
Issued by NWS Jackson, KY

Home | Current Version | Previous Version | Graphics & Text | Print | Product List | Glossary On
Versions: 1 2 3 4 5 6 7 8 9 10 11 12 13 14 15 16 17 18 19 20 21 22 23 24 25 26 27
000
ASUS43 KJKL 210210
RWRJKL

EAST KENTUCKY HOURLY WEATHER ROUNDUP
NATIONAL WEATHER SERVICE JACKSON KY
1000 PM EDT FRI OCT 20 2017

NOTE: "FAIR" INDICATES FEW OR NO CLOUDS BELOW 12,000 FEET WITH
NO SIGNIFICANT WEATHER AND/OR OBSTRUCTIONS TO VISIBILITY.

* THESE REPORTS ARE NOT UNDER NWS QUALITY CONTROL AND MAY NOT
  REPORT WEATHER SUCH AS PRECIPITATION AND FOG.

KYZ079-080-083-085-087-088-110-112-115-119-120-210300
...EASTERN KENTUCKY...

CITY           SKY/WX    TMP DP  RH WIND       PRES   REMARKS
JACKSON        CLEAR     63  50  62 CALM      30.24R
LONDON         CLEAR     55  51  86 CALM      30.23R
SOMERSET*      CLEAR     54  54 100 CALM      30.23S
MONTICELLO*    CLOUDY    49  47  93 CALM      30.23S
WILLIAMSBURG*  CLEAR     55  54  94 CALM      30.23S
MIDDLESBORO*   CLEAR     52  50  95 CALM      30.26R
HARLAN APT*    CLEAR     54  50  87 CALM      30.26R
PIKE CO APT*     N/A     64  51  61 E3        30.24S
BIG SANDY APT* CLEAR     58  54  85 CALM      30.24R
MOREHEAD APT*  CLEAR     61  54  77 SE3       30.24R
$$

KYZ035-036-041-042-044-050-067-078-099-210300
...CENTRAL KENTUCKY...

CITY           SKY/WX    TMP DP  RH WIND       PRES   REMARKS
MT STERLING*   CLEAR     54  52  94 CALM      30.24R
FLEMING/MASON* CLEAR     61  54  75 CALM      30.23R
DANVILLE*      CLEAR     54  52  94 CALM      30.22S
LEXINGTON      CLEAR     59  51  75 SE3       30.21S
FRANKFORT      CLEAR     55  50  83 CALM      30.20S
LOUISVILLE     PTCLDY    64  52  64 SE3       30.17F
LEBANON*         N/A     64  50  59 CALM      30.20S HAZE
GLASGOW*       CLOUDY    55  51  87 E3        30.18F
BOWLING GREEN  CLOUDY    57  54  89 CALM      30.17F
$$

KYZ091>093-OHZ055-061-077-WVZ005-015-034-035-042-210300
...SOUTHERN OHIO/WEST VIRGINIA...

CITY           SKY/WX    TMP DP  RH WIND       PRES   REMARKS
COVINGTON      PTCLDY    61  53  75 S6        30.19F
COLUMBUS       PTCLDY    56  46  69 SE6       30.21S
DAYTON         PTCLDY    63  54  72 S5        30.21R
WILMINGTON     CLEAR     58  51  78 SE6       30.21S
HUNTINGTON     CLEAR     58  53  84 E3        30.22S
CHARLESTON     CLEAR     55  50  83 CALM      30.24R
PINEVILLE*     CLEAR     51  48  89 MISG      30.31S
BECKLEY        CLEAR     53  45  74 CALM      30.29R
BLUEFIELD      CLEAR     58  44  60 E3        30.30S
LOGAN CO APT*    N/A     61  50  67 CALM      30.25S
$$

VAZ002-007-008-TNZ017-027-036-066-071-210300
...SOUTHWEST VIRGINIA/EAST TENNESSEE...

CITY           SKY/WX    TMP DP  RH WIND       PRES   REMARKS
WISE*          CLEAR     63  46  55 CALM      30.30R
JONESVILLE*      N/A     52  50  93 CALM      30.27
ABINGDON*      CLEAR     56  49  77 CALM      30.27R
BRISTOL        PTCLDY    51  49  92 CALM      30.25R
MORRISTOWN*    CLEAR     59  48  67 CALM      30.23R
SEVIERVILLE*   CLEAR     54  48  82 CALM      30.22S
KNOXVILLE      MOCLDY    60  55  83 CALM      30.21R
LAFOLLETTE*    CLEAR     52  50  93 CALM      30.27R
OAK RIDGE      CLEAR     55  54  96 CALM      30.23S
CROSSVILLE     CLEAR     53  48  83 CALM      30.24S
NASHVILLE      MOCLDY    59  50  72 S5        30.18S
$$

...KEY TO REMARKS...
VSB - VISIBILITY IN MILES
WCI - WIND CHILL INDEX
HX  - HEAT INDEX

$$




USA.gov is the U.S. government's official web portal to all federal, state and local government web resources and services.